This demonstration page uses our WeatherBlox Daily Observations layout. Learn more.

Left ArrowRight Arrow

Hourly Observations for August 11, 2022

Temp ( °F °C ) Dew Point ( °F °C ) Humidity (%) Winds ( mph kmh ) Pressure ( in mb ) Visibility ( mi km ) Precip ( " mm )
12:52 am 00:52 Clear 75 23.9 66 18.9 74 74 ESE 5 7 30.13 1020 10 16 0.00 0.00
1:52 am 01:52 Clear 74 23.3 66 18.9 76 76 Calm 30.13 1020 10 16 0.00 0.00
2:52 am 02:52 Clear 72 22.2 66 18.9 82 82 ESE 3 6 30.14 1021 10 16 0.00 0.00
3:52 am 03:52 Clear 70 21.1 66 18.9 87 87 SE 7 11 30.13 1020 10 16 0.00 0.00
4:52 am 04:52 Clear 70 21.1 65 18.3 84 84 SE 3 6 30.13 1020 10 16 0.00 0.00
5:52 am 05:52 Mostly Clear 67 19.4 63 17.2 87 87 Calm 30.14 1021 10 16 0.00 0.00
6:52 am 06:52 Partly Cloudy 65 18.3 63 17.2 93 93 Calm 30.14 1021 10 16 0.00 0.00
7:52 am 07:52 Partly Cloudy 70 21.1 65 18.3 84 84 SSE 3 6 30.16 1021 10 16 0.00 0.00
8:52 am 08:52 Partly Cloudy 74 23.3 65 18.3 74 74 SSE 3 6 30.16 1021 10 16 0.00 0.00
9:52 am 09:52 Partly Cloudy 79 26.1 65 18.3 62 62 S 5 7 30.15 1021 10 16 0.00 0.00
10:52 am 10:52 Partly Cloudy 83 28.3 63 17.2 51 51 VRB 3 6 30.15 1021 10 16 0.00 0.00
11:52 am 11:52 Partly Cloudy 85 29.4 64 17.8 50 50 S 8 13 30.14 1021 10 16 0.00 0.00
12:52 pm 12:52 Partly Cloudy 88 31.1 64 17.8 45 45 SSE 7 11 30.12 1020 10 16 0.00 0.00
1:52 pm 13:52 Partly Cloudy 90 32.2 64 17.8 42 42 VRB 3 6 30.10 1019 10 16 0.00 0.00
2:52 pm 14:52 Partly Cloudy 91 32.8 64 17.8 41 41 SSE 13 20 30.09 1019 10 16 0.00 0.00
3:52 pm 15:52 Partly Cloudy 92 33.3 64 17.8 40 40 SE 14 22 30.07 1018 10 16 0.00 0.00
4:52 pm 16:52 Partly Cloudy 92 33.3 64 17.8 40 40 S 14 22 30.06 1018 10 16 0.00 0.00
5:52 pm 17:52 Mostly Cloudy 91 32.8 65 18.3 42 42 S 10 17 30.05 1018 10 16 0.00 0.00
6:52 pm 18:52 Mostly Cloudy 89 31.7 65 18.3 45 45 SSE 14 22 30.05 1018 10 16 0.00 0.00
7:52 pm 19:52 Mostly Cloudy 87 30.6 64 17.8 46 46 S 10 17 30.05 1018 10 16 0.00 0.00
8:52 pm 20:52 Partly Cloudy 82 27.8 65 18.3 56 56 SSE 12 19 30.06 1018 10 16 0.00 0.00
9:52 pm 21:52 Partly Cloudy 81 27.2 65 18.3 58 58 SSE 9 15 30.07 1018 10 16 0.00 0.00
10:52 pm 22:52 Partly Cloudy 77 25 66 18.9 69 69 SSE 7 11 30.08 1019 10 16 0.00 0.00
11:52 pm 23:52 Mostly Clear 77 25 66 18.9 69 69 SE 7 11 30.08 1019 10 16 0.00 0.00

Powered by AerisWeather